Retour au catalogue

KUIPER-00459

ActifCommunicationsLEO
NORAD 68872·PAYLOAD·🇺🇸 United States

Lancé Apr 28, 2026 depuis Cape Canaveral Space Force Station

Loading…

Prochains Passages (prochaines 24 heures)

TLE

FraisSource: CelesTrak SupGP

Époque: Sep 14, 2026, 20:06 UTC

1 68872C 26095J   26257.83762732  .00001715  00000+0  22454-3 0  2573
2 68872  51.9013 194.2933 0000862  84.9932 300.6256 14.79931473    15

Suivez KUIPER-00459 en temps réel avec AllMySat

Download on the App Store